[[{"header":{"parameterUnit":"m.s-1","parameterCategory":1,"la1":30.2991,"la2":30.254,"lo1":-89.0895,"lo2":-89.0444,"dy":0.0017,"dx":0.0017,"nx":28,"ny":28,"refTime":"2025-03-11T03:00:00:Z","depth":0,"parameterNumber":2,"parameterNumberName":"U-component_of_WINDS"},"data":[0,0,0,0,0,0,0,0,0,0,0,0,0,0,0,0,0,0,0,0,0,0,0,0,0,0,0,0,0,0,0,0,0,0,0,0,0,0,0,0,0,0,0,0,0,0,0,0,0,0,0,0,0,0,0,0,0,0,1.0682,1.0682,0,1.0755,1.0756,1.0757,1.08,1.08,1.08,1.08,1.088,1.0882,1.0884,0,0,0,0,0,0,0,0,0,0,0,0,0,1.0582,1.0584,1.0681,1.0682,1.0683,1.0755,1.0756,1.0757,1.08,1.08,1.08,1.08,1.0879,1.0882,1.0884,0,0,0,0,0,0,0,0,0,0,0,0,0,1.0638,1.0585,1.0681,1.0713,1.0717,1.0755,1.0756,1.0757,1.08,1.08,1.08,1.08,1.0879,1.0881,1.0884,1.0898,0,0,1.0893,1.0895,0,0,0,0,0,0,0,0,1.0635,1.0641,1.0708,1.0711,1.0715,1.0768,1.0751,1.0805,1.08,1.0768,1.08,1.08,1.0843,1.0849,1.0862,1.0902,1.0905,1.0894,1.0895,1.0897,1.0898,0,0,0,0,0,0,0,1.0631,1.0639,1.0711,1.0708,1.0713,1.0725,1.0733,1.0761,1.0804,1.0771,1.0774,1.0782,1.0845,1.0859,1.0865,1.0906,1.0894,1.0896,1.0898,1.0899,1.0962,1.0962,0,0,0,0,0,0,1.0621,1.0635,1.0708,1.0713,1.0674,1.0727,1.0736,1.0751,1.0803,1.0811,1.0782,1.0784,1.0854,1.0861,1.0867,1.0887,1.0897,1.09,1.0901,1.0962,1.0962,1.0962,0,0,0,0,0,0,1.0619,1.0627,1.0706,1.0675,1.0686,1.0728,1.0745,1.0752,1.0767,1.0812,1.082,1.0788,1.0855,1.0863,1.089,1.0891,1.0901,1.0904,1.0962,1.0962,1.0962,1.0927,0,0,0,0,0,0,1.0616,1.0626,1.063,1.0675,1.0687,1.0725,1.0745,1.0754,1.0771,1.0774,1.082,1.0827,1.0855,1.0885,1.0893,1.0895,1.0906,1.0963,1.0962,1.0962,1.0928,1.0925,1.0923,0,0,0,0,0,1.0612,1.0618,1.063,1.0639,1.0693,1.0725,1.0732,1.0763,1.0771,1.0776,1.0806,1.0826,1.089,1.0888,1.0897,1.0899,1.0963,1.0962,1.0962,1.0929,1.0926,1.0923,0,0,0,0,0,0,1.0574,1.0624,1.0639,1.0659,1.0687,1.0732,1.074,1.0759,1.0786,1.0788,1.0827,1.0837,1.086,1.0883,1.088,1.0916,1.0929,1.093,1.09,1.0898,1.0895,1.0889,1.0908,0,0,0,0,0,1.0567,1.0588,1.0631,1.0645,1.0659,1.0697,1.0712,1.0733,1.0765,1.0777,1.0808,1.0839,1.0866,1.0883,1.0911,1.0932,1.0943,1.0938,1.0936,1.0934,1.0934,1.0948,1.0947,1.0961,1.0961,1.0961,0,0,1.0555,1.0585,1.0596,1.0638,1.0663,1.0684,1.0706,1.0728,1.0745,1.0781,1.0807,1.0832,1.0869,1.0893,1.0905,1.0913,1.0933,1.0933,1.0931,1.0933,1.0948,1.0946,1.0945,1.0961,1.0961,1.0961,0,0,1.0543,1.0567,1.0581,1.0606,1.0642,1.0668,1.0671,1.0714,1.0731,1.0758,1.0786,1.0808,1.0853,1.0879,1.0898,1.0898,1.0918,1.0906,1.0893,1.0906,1.0905,1.0904,1.0904,1.0903,1.0907,1.0907,1.0906,0,1.0522,1.0554,1.0587,1.0607,1.0625,1.0658,1.0674,1.0697,1.0741,1.0754,1.0761,1.082,1.0847,1.0878,1.0878,1.0892,1.0899,1.09,1.0902,1.0901,1.0901,1.0902,1.0902,1.0905,1.0905,1.0905,1.0905,0,1.0528,1.055,1.0558,1.0598,1.0618,1.0636,1.0672,1.0689,1.0709,1.0735,1.0763,1.0798,1.0833,1.0842,1.0863,1.0877,1.088,1.0894,1.0907,1.0897,1.0899,1.0899,1.0902,1.0903,1.0903,1.0904,0,0,1.0492,1.0551,1.0553,1.0573,1.0617,1.0635,1.0656,1.0689,1.0702,1.0733,1.0751,1.079,1.0804,1.0825,1.085,1.0861,1.0859,1.0874,1.0876,1.087,1.0878,1.0866,1.0865,1.0873,1.0873,1.0874,1.0874,0,1.0486,1.0522,1.0553,1.0578,1.06,1.0633,1.0651,1.068,1.0705,1.0729,1.0757,1.0783,1.08,1.0813,1.0826,1.0856,1.0861,1.0857,1.0892,1.0893,1.0881,1.0866,1.0854,1.0853,1.0875,1.0875,1.0875,0,1.0483,1.051,1.0538,1.058,1.0591,1.0606,1.064,1.0661,1.0697,1.0714,1.0739,1.0764,1.0789,1.0801,1.0836,1.0833,1.0849,1.0867,1.0868,1.0872,1.0883,1.0869,1.0853,1.0853,1.0876,1.0876,1.0876,0,1.0453,1.0498,1.052,1.0536,1.0586,1.0597,1.0618,1.0654,1.0673,1.0703,1.0716,1.0749,1.0768,1.0794,1.0828,1.0833,1.086,1.0874,1.0877,1.0876,1.088,1.0879,1.0865,1.0891,1.0891,1.0891,1.0891,0,1.0442,1.0458,1.0508,1.0521,1.054,1.0577,1.0595,1.062,1.0652,1.0672,1.0704,1.0723,1.0767,1.0792,1.0819,1.0845,1.0853,1.0869,1.0876,1.0866,1.0863,1.0876,1.0877,1.0891,1.0891,1.0891,1.0891,0,1.0411,1.0445,1.0472,1.0518,1.053,1.0542,1.0582,1.0598,1.0625,1.0651,1.0659,1.0702,1.0733,1.077,1.0814,1.0832,1.0856,1.0866,1.0843,1.0847,1.0847,1.0846,1.084,1.0842,1.0867,1.0867,1.0866,0,1.0402,1.0414,1.0462,1.0477,1.0498,1.0522,1.0542,1.0579,1.0598,1.0641,1.0651,1.0685,1.0713,1.0761,1.0797,1.0831,1.0843,1.0839,1.0848,1.0838,1.0843,1.0841,1.0843,1.0836,1.0835,1.0835,1.0834,0,1.0381,1.0397,1.0423,1.0455,1.0477,1.0505,1.0534,1.0545,1.0589,1.0609,1.064,1.0662,1.0707,1.074,1.0778,1.0803,1.0826,1.0831,1.0834,1.0823,1.0808,1.0816,1.0835,1.0831,1.0831,1.0832,1.0832,1.0832,1.036,1.0373,1.0409,1.0437,1.0463,1.049,1.0507,1.0536,1.0563,1.0601,1.0622,1.0653,1.0691,1.0745,1.0769,1.0795,1.0803,1.0806,1.0807,1.0807,1.0804,1.0805,1.0802,1.0803,1.0803,1.0803,1.0803,0,1.034,1.0365,1.0391,1.043,1.0453,1.0473,1.0507,1.0525,1.0551,1.0584,1.0611,1.0648,1.0681,1.072,1.0756,1.077,1.0781,1.0778,1.0777,1.0782,1.0795,1.0789,1.0768,1.0768,1.0768,1.0768,1.0768,1.0768,1.0332,1.0356,1.0377,1.0414,1.044,1.047,1.0488,1.0513,1.0539,1.0579,1.0606,1.0631,1.0667,1.0706,1.0738,1.0749,1.076,1.0753,1.0767,1.0778,1.0781,1.0784,1.0779,1.0755,1.0755,1.0752,1.0752,1.0752]},{"header":{"parameterUnit":"m.s-1","parameterCategory":1,"la1":30.2991,"la2":30.254,"lo1":-89.0895,"lo2":-89.0444,"dy":0.0017,"dx":0.0017,"nx":28,"ny":28,"refTime":"2025-03-11T03:00:00:Z","depth":0,"parameterNumber":3,"parameterNumberName":"V-component_of_WINDS"},"data":[0,0,0,0,0,0,0,0,0,0,0,0,0,0,0,0,0,0,0,0,0,0,0,0,0,0,0,0,0,0,0,0,0,0,0,0,0,0,0,0,0,0,0,0,0,0,0,0,0,0,0,0,0,0,0,0,0,0,3.4476,3.4476,0,3.4463,3.4463,3.4463,3.4483,3.4484,3.4485,3.4485,3.4466,3.4465,3.4464,0,0,0,0,0,0,0,0,0,0,0,0,0,3.4515,3.4514,3.4476,3.4476,3.4476,3.4463,3.4463,3.4463,3.4483,3.4484,3.4485,3.4486,3.4467,3.4465,3.4464,0,0,0,0,0,0,0,0,0,0,0,0,0,3.4499,3.4514,3.4476,3.4485,3.4485,3.4463,3.4463,3.4463,3.4483,3.4484,3.4485,3.4486,3.4467,3.4465,3.4463,3.4431,0,0,3.4458,3.4457,0,0,0,0,0,0,0,0,3.45,3.4498,3.4484,3.4484,3.4485,3.4476,3.4469,3.4452,3.4483,3.4484,3.4485,3.4487,3.4468,3.4466,3.4461,3.443,3.4429,3.4458,3.4457,3.4456,3.4456,0,0,0,0,0,0,0,3.4501,3.4498,3.4471,3.4483,3.4484,3.4488,3.4487,3.4466,3.447,3.4484,3.4485,3.4484,3.4469,3.4463,3.4461,3.4429,3.4458,3.4456,3.4455,3.4455,3.4368,3.4367,0,0,0,0,0,0,3.4502,3.4499,3.4471,3.4471,3.4495,3.4486,3.4485,3.4478,3.447,3.447,3.4483,3.4485,3.4465,3.4463,3.446,3.4421,3.4456,3.4454,3.4453,3.437,3.4368,3.4367,0,0,0,0,0,0,3.4503,3.4499,3.4472,3.4485,3.4482,3.4484,3.4476,3.4477,3.4471,3.4469,3.447,3.4476,3.4466,3.4463,3.4438,3.442,3.4454,3.4452,3.4371,3.4369,3.4367,3.4342,0,0,0,0,0,0,3.4504,3.4499,3.4488,3.4485,3.4481,3.4451,3.4475,3.4476,3.4469,3.4471,3.4464,3.4463,3.4467,3.4441,3.4436,3.4419,3.4451,3.4373,3.437,3.4368,3.4344,3.4339,3.4335,0,0,0,0,0,3.4505,3.448,3.4487,3.4484,3.4468,3.445,3.4448,3.4454,3.4467,3.4455,3.4454,3.4464,3.4423,3.4438,3.4433,3.4415,3.4374,3.4371,3.4368,3.4346,3.434,3.4335,0,0,0,0,0,0,3.4479,3.448,3.4488,3.4462,3.4456,3.4454,3.4439,3.4448,3.4437,3.4439,3.4445,3.4443,3.4417,3.4413,3.443,3.4382,3.44,3.4397,3.4385,3.4379,3.4375,3.4376,3.4449,0,0,0,0,0,3.4471,3.4459,3.4459,3.4436,3.4433,3.4436,3.4429,3.4434,3.4428,3.4425,3.4422,3.4414,3.4399,3.4389,3.4376,3.4344,3.4342,3.4329,3.4324,3.432,3.4317,3.4298,3.4292,3.4358,3.4358,3.4358,0,0,3.4453,3.4452,3.4443,3.4431,3.4427,3.4413,3.4434,3.4418,3.4406,3.4422,3.4399,3.4396,3.4387,3.4359,3.4346,3.4355,3.4298,3.4317,3.4314,3.4312,3.4295,3.4289,3.4283,3.4356,3.4356,3.4357,0,0,3.4413,3.4411,3.4392,3.4388,3.4382,3.4385,3.438,3.4377,3.4376,3.4353,3.4364,3.435,3.4325,3.4318,3.4311,3.4268,3.4276,3.4264,3.4239,3.4222,3.4216,3.4212,3.4196,3.419,3.426,3.426,3.426,0,3.4391,3.4371,3.438,3.4363,3.4357,3.4372,3.4351,3.4346,3.4336,3.433,3.4341,3.431,3.4305,3.4275,3.4264,3.4259,3.4252,3.4264,3.4217,3.4212,3.4208,3.4193,3.4187,3.4259,3.4259,3.4259,3.4259,0,3.4343,3.4329,3.4314,3.4305,3.4297,3.4278,3.4283,3.4274,3.4279,3.428,3.4256,3.4251,3.4236,3.423,3.4235,3.4199,3.4205,3.4216,3.4235,3.42,3.4186,3.418,3.4256,3.4257,3.4257,3.4258,0,0,3.4286,3.4283,3.4277,3.4273,3.4269,3.4257,3.4238,3.4226,3.4217,3.4209,3.4192,3.4171,3.4182,3.4174,3.4178,3.4163,3.4128,3.4176,3.4175,3.4166,3.4087,3.4078,3.4071,3.4134,3.4133,3.4132,3.4088,0,3.4245,3.4215,3.4222,3.4191,3.4178,3.4192,3.4176,3.417,3.417,3.4157,3.4156,3.4141,3.4156,3.4152,3.4137,3.4135,3.4112,3.4139,3.4116,3.4115,3.4117,3.4064,3.4054,3.4013,3.4082,3.4081,3.4081,0,3.4193,3.4185,3.4154,3.4151,3.4145,3.4131,3.412,3.4108,3.4101,3.4102,3.4094,3.4101,3.408,3.41,3.4071,3.4089,3.408,3.4078,3.4076,3.4073,3.4095,3.4059,3.4,3.3994,3.4072,3.4073,3.4073,0,3.4153,3.4135,3.4113,3.4109,3.4106,3.4095,3.4093,3.4087,3.4079,3.4069,3.4063,3.405,3.4043,3.4031,3.4034,3.4049,3.4004,3.4024,3.4003,3.4002,3.3992,3.3992,3.393,3.3988,3.3988,3.3988,3.3988,0,3.4106,3.4086,3.4095,3.4082,3.4059,3.4067,3.4044,3.4043,3.4038,3.4023,3.4034,3.402,3.4025,3.401,3.4012,3.3987,3.3984,3.3983,3.3983,3.3981,3.3981,3.3975,3.3977,3.3986,3.3987,3.3987,3.3987,0,3.4057,3.4063,3.404,3.4039,3.4039,3.4022,3.402,3.4006,3.4008,3.3989,3.3985,3.3986,3.397,3.3972,3.3952,3.3954,3.3922,3.3927,3.3925,3.3926,3.3904,3.3905,3.3835,3.3825,3.389,3.3889,3.3889,0,3.4026,3.4011,3.4009,3.4001,3.3999,3.3985,3.3978,3.3985,3.3976,3.3968,3.3955,3.394,3.3928,3.39,3.3898,3.3883,3.3886,3.3863,3.3884,3.3882,3.3885,3.3885,3.3883,3.3858,3.3857,3.3857,3.3856,0,3.3971,3.3975,3.3964,3.3954,3.3945,3.3937,3.3931,3.3923,3.3929,3.3919,3.3903,3.3894,3.3875,3.3859,3.3845,3.384,3.3848,3.385,3.3844,3.3841,3.384,3.3839,3.3912,3.3851,3.3851,3.3852,3.3852,3.3852,3.3929,3.3916,3.3913,3.3901,3.3897,3.389,3.3878,3.3878,3.3866,3.3852,3.3857,3.3839,3.3831,3.3814,3.3808,3.3792,3.38,3.3792,3.379,3.3787,3.3784,3.3844,3.379,3.379,3.379,3.379,3.379,0,3.3873,3.3872,3.3861,3.3852,3.3842,3.3853,3.3846,3.3836,3.382,3.3814,3.3803,3.3784,3.3768,3.3766,3.375,3.3738,3.3741,3.3734,3.3734,3.3733,3.3778,3.3785,3.3731,3.3732,3.3732,3.3732,3.3732,3.3732,3.3843,3.3822,3.3825,3.3801,3.38,3.3784,3.3778,3.3772,3.3767,3.3746,3.3734,3.3733,3.3727,3.3712,3.3698,3.3697,3.369,3.3681,3.3682,3.3724,3.373,3.3735,3.3741,3.368,3.368,3.3638,3.3637,3.3637]}]]